Flag for Guatemala Weather past 2 weeks in Escuintla, Guatemala

Now
63 °F

Passing clouds.


Feels Like: 63 °F
Forecast: 67 / 92 °F
Wind: 9 mph from North

Location: Guatemala Aeropuertola Aurora

Current Time: Dec 20, 2014 at 11:42:52 PM

Latest Report: Dec 20, 2014 at 11:00 PM


Visibility: N/A

Pressure: 30.33 "Hg

Humidity: 88%

Dew point: 59 °F

Location of EscuintlaLocation

Historic Weather in Escuintla — Graph

°F

Escuintla temperature yesterday

Maximum temperature yesterday: 79 °F (at 1:00 PM)
Minimum temperature yesterday: 59 °F (at 5:00 AM)
Average temperature yesterday: 66 °F

Past Weeks' High & Low Weather Summary

 TemperatureHumidityPressure
High84 °F (Dec 9, 12:00 PM)100% (Dec 15, 4:00 AM)30.42 "Hg (Dec 15, 4:00 AM)
Low54 °F (Dec 11, 3:00 AM)35% (Dec 9, 12:00 PM)30.18 "Hg (Dec 8, 4:00 PM)
Average62 °F78%30.31 "Hg
* Reported Dec 5 10:00 PM — Dec 20 10:00 PM, Escuintla, Weather by CustomWeather, © 2014

Note: Actual official high and low records may vary slightly from our data, if they occured in-between our weather recording intervals... More about our weather records

Advertising

Escuintla weather history for previous 24 hours

 ConditionsComfort  
Time TempWeatherWind HumidityBarometerVisibility
10:00 PM
Dec 20
63 °FPassing clouds.14 mph88%30.33 "HgN/A
9:00 PM63 °FPassing clouds.18 mph88%30.33 "HgN/A
8:00 PM64 °FPassing clouds.14 mph78%30.30 "HgN/A
7:00 PM66 °FClear.16 mph78%30.27 "Hg10 mi
6:00 PM68 °FPassing clouds.16 mph73%30.24 "HgN/A
5:00 PM70 °FPassing clouds.14 mph64%30.24 "HgN/A
4:00 PM73 °FScattered clouds.14 mph57%30.24 "HgN/A
3:00 PM75 °FPassing clouds.12 mph44%30.24 "HgN/A
2:00 PM75 °FPassing clouds.12 mph44%30.24 "HgN/A
1:00 PM75 °FPassing clouds.14 mph44%30.24 "HgN/A
12:00 PM75 °FSunny.12 mph44%30.27 "Hg10 mi
11:00 AM73 °FSunny.12 mph44%30.30 "Hg10 mi
10:00 AM70 °FSunny.9 mph64%30.30 "Hg10 mi
9:00 AM68 °FSunny.9 mph69%30.30 "Hg10 mi
8:00 AM63 °FSunny.5 mph83%30.30 "Hg10 mi
7:00 AM54 °FSunny.No wind100%30.27 "Hg10 mi
6:00 AM55 °FClear.No wind94%30.27 "Hg5 mi
5:00 AM55 °FClear.No wind94%30.24 "Hg10 mi
4:00 AM57 °FClear.5 mph94%30.24 "Hg10 mi
3:00 AM59 °FPassing clouds.5 mph94%30.24 "Hg5 mi
2:00 AM59 °FPassing clouds.5 mph94%30.27 "HgN/A
1:00 AM59 °FPassing clouds.7 mph94%30.27 "HgN/A
12:05 AMN/APassing clouds.7 mphN/AN/AN/A
12:00 AM59 °FPassing clouds.7 mph88%30.27 "HgN/A
11:00 PM
Dec 19
59 °FClear.7 mph88%30.30 "Hg10 mi
Weather by CustomWeather, © 2014

See weather overviewHow to use our weather pages